Regional Weather Roundup
Issued by NWS

Home | Current Version | Previous Version | Graphics & Text | Print | Product List | Glossary On
Versions: 1 2 3 4 5 6 7 8 9 10 11 12 13 14 15 16 17 18 19 20 21 22 23 24 25
987
ASUS43 KDMX 211907
RWRIA

WEATHER ROUNDUP FOR IOWA
NATIONAL WEATHER SERVICE DES MOINES IA
200 PM CDT THU MAY 21 2015

NOTE: "FAIR" INDICATES FEW OR NO CLOUDS BELOW 12,000 FEET WITH NO
SIGNIFICANT WEATHER AND/OR OBSTRUCTIONS TO VISIBILITY.

* - THESE STATIONS ARE NOT NWS STATIONS...THUS NOT UNDER NWS
QUALITY CONTROL.  THEY ALSO DO NOT REPORT WEATHER SUCH
AS PRECIPITATION OR FOG.

IAZ001>003-012>014-020>022-031>034-043>046-212000-
   NORTHWEST IOWA

CITY           SKY/WX    TMP DP  RH WIND       PRES   REMARKS
CARROLL *      SUNNY     72  37  28 NW18G25   30.14F
CHEROKEE *     SUNNY     70  41  35 W13G28    30.15F
DENISON *      SUNNY     70  39  32 W14G21    30.15F
LE MARS *      SUNNY     72  37  28 NW13G22   30.17F
ORANGE CITY *  SUNNY     70  39  32 NW17G26   30.15F
SHELDON *      SUNNY     73  34  23 NW22G30   30.12F
SIOUX CITY     SUNNY     72  35  25 NW14G22   30.18S
SPENCER        SUNNY     74  37  26 W23G31    30.11F
STORM LAKE *   SUNNY     70  41  35 NW21G26   30.15F
$$

IAZ055>058-069>071-079>083-090>094-212000-
   SOUTHWEST IOWA

CITY           SKY/WX    TMP DP  RH WIND       PRES   REMARKS
ATLANTIC *     SUNNY     68  41  37 NW13G20   30.18F
AUDUBON *      SUNNY     70  36  28 NW14G20   30.18S
CLARINDA *     SUNNY     68  45  42 NW10G18   30.23S
COUNCIL BLFS * SUNNY     68  45  42 NW13G18   30.21F
CRESTON *      SUNNY     66  45  45 NW15      30.19S
HARLAN  *      SUNNY     70  41  35 NW16      30.22S
LAMONI         SUNNY     70  49  47 W14G22    30.18F
RED OAK *      SUNNY     68  43  40 NW12G20   30.21S
SHENANDOAH *   SUNNY     68  41  37 W12       30.22F
$$

IAZ047>049-059>061-072>074-084-212000-
   CENTRAL IOWA

CITY           SKY/WX    TMP DP  RH WIND       PRES   REMARKS
AMES           SUNNY     74  40  29 NW20G25   30.11F
ANKENY *       SUNNY     72  45  37 NW15G23   30.12F
CHARITON *     SUNNY     68  45  42 W14G20    30.15F
DES MOINES     MOSUNNY   74  37  26 NW16      30.12F
GRINNELL*      SUNNY     68  43  40 W10G16    30.11F
KNOXVILLE *    SUNNY     70  43  37 NW17      30.12F
MARSHALLTOWN   SUNNY     71  45  39 MISG      30.08F
PELLA *        SUNNY     70  50  49 W10G18    30.13F
PERRY *          N/A     72  37  28 NW16G23   30.14S
$$

IAZ004>006-015-016-023>025-035-036-212000-
   NORTH CENTRAL IOWA

CITY           SKY/WX    TMP DP  RH WIND       PRES   REMARKS
ALGONA *       SUNNY     73  36  25 NW22G31   30.09S
CLARION *      SUNNY     73  41  31 W25       30.08F
ESTHERVILLE    SUNNY     73  36  25 NW16      30.09S
FORT DODGE *   SUNNY     72  46  40 W16G23    30.12F
MASON CITY     SUNNY     73  37  27 NW17G28   30.07F
FOREST CITY *  SUNNY     70  36  28 NW16G22   30.06F
IOWA FALLS *     N/A     72  41  33 W18G29    30.10F
$$

IAZ007>011-017>019-026>030-037>042-050>054-066-212000-
   NORTHEAST IOWA

CITY           SKY/WX    TMP DP  RH WIND       PRES   REMARKS
CEDAR RAPIDS   SUNNY     67  44  43 W14G21    30.09F
CHARLES CITY * SUNNY     72  37  28 W16G24    30.05F
CLINTON *      SUNNY     68  41  37 NW18      30.11F
DECORAH *      MOSUNNY   70  37  30 SW9G17    30.02F
DUBUQUE        SUNNY     65  43  44 W12G21    30.08S
MONTICELLO *   SUNNY     66  45  45 W10G17    30.08F
OELWEIN *      SUNNY     68  48  49 W10G18    30.07F
WATERLOO       SUNNY     70  46  42 W9G21     30.06F
$$

IAZ064-065-067-068-078-212000-
   EAST CENTRAL IOWA

CITY           SKY/WX    TMP DP  RH WIND       PRES   REMARKS
DAVENPORT      SUNNY     67  37  33 W13G21    30.11S
IOWA CITY      SUNNY     68  43  40 W9        30.12F
MT. PLEASANT * SUNNY     66  41  39 W15       30.14F
MUSCATINE *    SUNNY     68  41  37 W17       30.12F
QUAD CITIES    SUNNY     68  40  35 W13G18    30.10F
$$

IAZ062-063-075>077-085>089-095>099-212000-
   SOUTHEAST IOWA

CITY           SKY/WX    TMP DP  RH WIND       PRES   REMARKS
BURLINGTON     SUNNY     65  44  46 W10       30.14F
FAIRFIELD *    SUNNY     66  43  42 W9G21     30.13F
FORT MADISON *   N/A    N/A N/A N/A MISG        N/A
KEOKUK *       SUNNY     64  46  52 NW8G17    30.15F
OSKALOOSA *      N/A     68  41  37 NW15G21   30.13F
CENTERVILLE *  SUNNY     66  66 100 W10G20    30.17F
OTTUMWA        SUNNY     67  46  47 W12       30.13F
WASHINGTON *   SUNNY     68  41  37 W13       30.14F
$$

ABBREVIATIONS USED IN REMARKS
   TC - TEMPERATURES IN CELSIUS
  WCI - WIND CHILL INDEX
   HX - HEAT INDEX
  VSB - VISIBILITY
$$




USA.gov is the U.S. government's official web portal to all federal, state and local government web resources and services.